Regional Weather Roundup
Issued by NWS State College, PA

Home | Current Version | Previous Version | Graphics & Text | Print | Product List | Glossary On
Versions: 1 2 3 4 5 6 7 8 9 10 11 12 13 14 15 16 17 18 19 20 21 22 23 24 25 26 27 28 29 30 31 32 33 34 35 36 37 38 39 40 41 42 43 44 45 46 47 48 49 50
000
ASUS41 KCTP 280603
RWRCTP

REGIONAL WEATHER ROUNDUP
NATIONAL WEATHER SERVICE STATE COLLEGE PA
200 AM EDT FRI APR 28 2017

Note: "fair" indicates few or no clouds below 12,000 feet with no
significant weather and/or obstructions to visibility.

* = STATION THAT DOES NOT REPORT PRECIPITATION /E.G. RAIN...SNOW...ETC/
    THUNDER OR FOG.

PAZ002>004-007>009-013>016-020>023-029>032-280700-
WESTERN PENNSYLVANIA

CITY           SKY/WX    TMP DP  RH WIND       PRES   REMARKS
ERIE           CLEAR     51  43  74 W9        29.90R
MEADVILLE      PTCLDY    49  43  80 W7        29.91R
FRANKLIN*      CLEAR     48  43  81 NW6       29.92R
NEW CASTLE     FAIR      53  48  83 N3        29.91R
BEAVER COUNTY  NOT AVBL
BUTLER*        PTCLDY    55  48  76 W5        29.90S
PITTSBURGH INT PTCLDY    56  52  86 W5        29.90R
PITTSBURGH     CLEAR     57  48  72 W6        29.89R
INDIANA*       MOCLDY    59  59 100 W6        29.91R
LATROBE        CLEAR     59  57  94 SW6       29.90R
WASHINGTON CO* PTCLDY    52  48  87 W5        29.93R
$$

PAZ004>006-010>012-017>019-024>028-033>037-041-042-045-046-049>053-280700-
CENTRAL PENNSYLVANIA

CITY           SKY/WX    TMP DP  RH WIND       PRES   REMARKS
BRADFORD       CLOUDY    52  49  89 NW12      29.88R
DUBOIS         PTCLDY    57  54  89 W9        29.87R
CLEARFIELD     PTCLDY    60  59  96 SW6       29.87R
JOHNSTOWN      MOCLDY    60  57  89 W10       29.90R
ALTOONA        MOCLDY    61  59  93 SW6       29.88R
STATE COLLEGE  MOCLDY    60  59  98 S3        29.85R
WILLIAMSPORT   MOCLDY    64  63  96 W3        29.81R
SELINSGROVE    PTCLDY    63  63 100 S3        29.83R
FT INDIANTOWN  CLEAR     63  63 100 CALM      29.83R
CAPITAL CITY   CLEAR     64  61  90 NW5       29.82R
HARRISBURG     PTCLDY    68  60  75 SW8       29.81R
YORK           CLEAR     69  60  73 SW9       29.83R
$$

PAZ038>040-043-044-047-048-054-055-060>062-067>071-280700-
EASTERN PENNSYLVANIA

CITY           SKY/WX    TMP DP  RH WIND       PRES   REMARKS
SCRANTON       CLEAR     66  61  84 VRB3      29.81S
MOUNT POCONO   CLOUDY    58  58 100 SE7       29.87R FOG
ALLENTOWN      CLOUDY    64  58  80 E7        29.84R
QUAKERTOWN*    PTCLDY    61  61 100 S3        29.86S
READING        CLEAR     68  61  78 S5        29.81S
LANCASTER      CLEAR     62  60  93 E5        29.82S
COATESVILLE    PTCLDY    64  61  88 CALM      29.86F
POTTSTOWN      CLOUDY    62  60  93 E5        29.85S
BLUE BELL      CLOUDY    61  59  94 CALM      29.87R
DOYLESTOWN     MOCLDY    60  59  96 CALM      29.86R
WILLOW GROVE   NOT AVBL
NORTH PHILA    PTCLDY    64  60  87 CALM      29.87R
PHILADELPHIA   LGT RAIN  68  63  84 SW3       29.86R
$$



USA.gov is the U.S. government's official web portal to all federal, state and local government web resources and services.